Date String (YYYY-MM-DD hh:mm:ss) UTC,Instrument flags,Ambient pressure (hPa),Sample flow (lpm),Bypass flow (lpm),Sample temperature (°C),Ambient temperature (°C),ASC tube jacket temperature (°C),LED temperature (°C),Box temperature (°C),Sample RH (%),Span deviation,Mass concentration (μg/m³),Mass concentration (μg/m³),Mass concentration (μg/m³)
DateTimeUTC,F1_M11,P_M11,Q1_M11,Q2_M11,T1_M11,T2_M11,T3_M11,T4_M11,T5_M11,U1_M11,ZSPAN_M11,X0_M11,X2_M11,X1_M11
2023-01-02 00:00:00,,0819.3,5.00,0.00,23.9,22.3,00.0,32.8,25.7,16.7,-001.2,0017.01,0013.70,0013.44
2023-01-02 00:01:00,,0819.3,5.01,0.00,23.9,22.3,00.0,32.8,25.7,17.0,-001.0,0017.01,0013.69,0013.46
2023-01-02 00:02:00,,0819.3,5.01,0.00,23.9,22.3,00.0,32.8,25.7,17.2,-000.8,0017.09,0013.71,0013.48
2023-01-02 00:03:00,,0819.3,5.00,0.00,23.9,22.3,00.0,32.8,25.7,16.9,-000.7,0017.09,0013.72,0013.50
2023-01-02 00:04:00,,0819.2,5.00,0.00,23.9,22.3,00.0,32.8,25.7,16.8,-001.0,0016.87,0013.75,0013.52
2023-01-02 00:05:00,,0819.3,4.99,0.00,23.9,22.4,00.0,32.8,25.7,16.8,-000.8,0016.58,0013.76,0013.52
2023-01-02 00:06:00,,0819.3,4.99,0.00,23.9,22.4,00.0,32.8,25.7,16.9,-000.9,0016.61,0013.78,0013.56
2023-01-02 00:07:00,,0819.3,5.00,0.00,23.9,22.4,00.0,32.8,25.7,16.9,-001.2,0017.08,0013.80,0013.57
2023-01-02 00:08:00,,0819.3,5.01,0.00,23.9,22.4,00.0,32.8,25.7,16.9,-001.3,0017.30,0013.83,0013.59
2023-01-02 00:09:00,,0819.3,5.00,0.00,23.9,22.4,00.0,32.7,25.6,16.9,-001.4,0017.49,0013.89,0013.60
2023-01-02 00:10:00,,0819.2,5.00,0.00,23.9,22.4,00.0,32.7,25.6,16.9,-001.5,0017.50,0013.88,0013.59
2023-01-02 00:11:00,,0819.2,5.00,0.00,23.9,22.4,00.0,32.7,25.7,16.9,-001.5,0017.56,0013.91,0013.61
2023-01-02 00:12:00,,0819.3,5.00,0.00,23.9,22.4,00.0,32.7,25.6,16.9,-001.7,0017.58,0013.93,0013.62
2023-01-02 00:13:00,,0819.3,5.00,0.00,23.9,22.5,00.0,32.7,25.6,17.0,-001.8,0017.53,0013.93,0013.63
2023-01-02 00:14:00,,0819.3,4.99,0.00,23.9,22.5,00.0,32.7,25.6,17.0,-001.8,0017.51,0013.89,0013.58
2023-01-02 00:15:00,,0819.3,4.99,0.00,23.8,22.5,00.0,32.7,25.7,17.0,-001.7,0017.42,0013.85,0013.53
2023-01-02 00:16:00,,0819.3,5.00,0.00,23.8,22.5,00.0,32.7,25.6,17.0,-001.8,0017.31,0013.78,0013.49
2023-01-02 00:17:00,,0819.3,5.01,0.00,23.9,22.5,00.0,32.7,25.6,17.1,-001.8,0017.25,0013.72,0013.42
2023-01-02 00:18:00,,0819.3,5.00,0.00,23.8,22.5,00.0,32.7,25.7,17.1,-001.8,0016.87,0013.68,0013.38
2023-01-02 00:19:00,,0819.3,5.00,0.00,23.8,22.5,00.0,32.7,25.6,17.1,-001.7,0016.54,0013.57,0013.28
2023-01-02 00:20:00,,0819.3,5.00,0.00,23.8,22.5,00.0,32.7,25.6,17.1,-001.6,0016.30,0013.45,0013.21
2023-01-02 00:21:00,,0819.3,5.00,0.00,23.8,22.5,00.0,32.7,25.6,17.1,-001.5,0016.22,0013.40,0013.17
2023-01-02 00:22:00,,0819.3,5.00,0.00,23.8,22.5,00.0,32.7,25.6,17.2,-001.7,0016.14,0013.33,0013.11
2023-01-02 00:23:00,,0819.2,5.00,0.00,23.8,22.5,00.0,32.7,25.6,17.2,-001.9,0016.05,0013.27,0013.06
2023-01-02 00:24:00,,0819.3,5.01,0.00,23.8,22.4,00.0,32.7,25.5,17.2,-001.9,0015.98,0013.19,0012.99
2023-01-02 00:25:00,,0819.3,5.01,0.00,23.8,22.3,00.0,32.7,25.5,17.2,-002.0,0016.03,0013.17,0012.97
2023-01-02 00:26:00,,0819.3,5.01,0.00,23.7,22.2,00.0,32.7,25.5,17.2,-002.0,0016.00,0013.14,0012.94
2023-01-02 00:27:00,,0819.3,5.00,0.00,23.7,22.1,00.0,32.7,25.5,17.3,-001.9,0016.07,0013.16,0012.95
2023-01-02 00:28:00,,0819.3,4.99,0.00,23.7,22.1,00.0,32.7,25.4,17.4,-001.8,0016.07,0013.15,0012.93
2023-01-02 00:29:00,,0819.3,5.01,0.00,23.6,22.0,00.0,32.6,25.3,17.5,-001.7,0016.07,0013.14,0012.92
2023-01-02 00:30:00,,0819.3,5.01,0.00,23.6,22.0,00.0,32.6,25.3,17.5,-001.7,0016.14,0013.18,0012.98
2023-01-02 00:31:00,,0819.3,5.00,0.00,23.6,21.9,00.0,32.6,25.3,17.6,-001.5,0016.23,0013.20,0012.98
2023-01-02 00:32:00,,0819.2,5.00,0.00,23.6,21.9,00.0,32.6,25.3,17.6,-001.5,0016.27,0013.19,0012.97
2023-01-02 00:33:00,,0819.2,5.01,0.00,23.6,21.9,00.0,32.6,25.3,17.7,-001.4,0016.27,0013.17,0012.95
2023-01-02 00:34:00,,0819.2,4.99,0.00,23.6,22.0,00.0,32.5,25.3,17.7,-001.3,0016.25,0013.13,0012.91
2023-01-02 00:35:00,,0819.3,5.00,0.00,23.5,22.0,00.0,32.5,25.3,17.7,-001.4,0016.24,0013.11,0012.87
2023-01-02 00:36:00,,0819.3,4.99,0.00,23.5,21.9,00.0,32.5,25.3,17.8,-001.5,0016.21,0013.12,0012.89
2023-01-02 00:37:00,,0819.3,4.99,0.00,23.5,21.9,00.0,32.5,25.3,18.0,-001.3,0016.23,0013.14,0012.91
2023-01-02 00:38:00,,0819.3,5.01,0.00,23.5,21.9,00.0,32.5,25.2,18.0,-001.2,0016.15,0013.10,0012.89
2023-01-02 00:39:00,,0819.3,5.00,0.00,23.5,21.9,00.0,32.5,25.2,17.9,-001.3,0016.13,0013.10,0012.90
2023-01-02 00:40:00,,0819.2,5.01,0.00,23.5,21.9,00.0,32.5,25.2,17.9,-001.1,0016.42,0013.12,0012.92
2023-01-02 00:41:00,,0819.2,5.01,0.00,23.5,21.9,00.0,32.4,25.2,17.9,-001.1,0016.71,0013.13,0012.91
2023-01-02 00:42:00,,0819.4,5.00,0.00,23.5,22.0,00.0,32.4,25.2,17.9,-001.2,0016.66,0013.12,0012.92
2023-01-02 00:43:00,,0819.3,5.00,0.00,23.4,22.0,00.0,32.4,25.2,17.9,-001.3,0016.65,0013.14,0012.93
2023-01-02 00:44:00,,0819.3,5.00,0.00,23.4,22.0,00.0,32.4,25.2,17.9,-001.2,0017.16,0013.19,0012.95
2023-01-02 00:45:00,,0819.2,4.99,0.00,23.4,21.9,00.0,32.4,25.2,18.0,-001.2,0017.49,0013.29,0013.03
2023-01-02 00:46:00,,0819.3,4.99,0.00,23.4,21.8,00.0,32.4,25.1,18.0,-000.9,0017.67,0013.44,0013.17
2023-01-02 00:47:00,,0819.2,5.01,0.00,23.4,21.8,00.0,32.4,25.1,18.0,-000.9,0017.75,0013.56,0013.30
2023-01-02 00:48:00,,0819.3,5.00,0.00,23.3,21.7,00.0,32.3,25.1,18.0,-001.2,0017.96,0013.71,0013.45
2023-01-02 00:49:00,,0819.3,5.00,0.00,23.3,21.7,00.0,32.3,25.1,18.0,-001.4,0018.18,0013.90,0013.62
2023-01-02 00:50:00,,0819.2,5.00,0.00,23.3,21.6,00.0,32.3,25.0,18.0,-001.5,0018.70,0014.08,0013.79
2023-01-02 00:51:00,,0819.3,5.00,0.00,23.3,21.6,00.0,32.3,25.0,18.0,-001.7,0019.03,0014.28,0013.96
2023-01-02 00:52:00,,0819.2,5.00,0.00,23.3,21.6,00.0,32.3,25.0,18.0,-001.7,0019.02,0014.46,0014.11
2023-01-02 00:53:00,,0819.3,5.00,0.00,23.3,21.6,00.0,32.3,25.0,18.0,-001.9,0019.20,0014.61,0014.24
2023-01-02 00:54:00,,0819.3,5.00,0.00,23.2,21.6,00.0,32.2,25.0,18.1,-001.8,0019.34,0014.75,0014.38
2023-01-02 00:55:00,,0819.2,5.00,0.00,23.2,21.6,00.0,32.2,25.0,18.1,-001.7,0018.99,0014.86,0014.52
2023-01-02 00:56:00,,0819.2,5.00,0.00,23.2,21.6,00.0,32.2,25.0,18.1,-001.6,0018.87,0014.93,0014.60
2023-01-02 00:57:00,,0819.3,4.99,0.00,23.2,21.7,00.0,32.2,25.0,18.1,-001.7,0019.27,0014.95,0014.61
2023-01-02 00:58:00,,0819.3,5.01,0.00,23.2,21.7,00.0,32.2,25.0,18.1,-001.8,0019.73,0015.00,0014.63
2023-01-02 00:59:00,,0819.3,5.01,0.00,23.2,21.8,00.0,32.2,25.0,18.1,-001.8,0019.79,0014.97,0014.60
